AA7VG Weather Reports


time (UTC)temp
C
wind
direction
speed
KPH
gust
KPH
rain 1hr
cm
rain 24hr
cm
rain mn
cm
humidity
%
barometer
mb
20260906231247 28 297 0.0 1.6 0.00 0.00 0.00 31 1010.4
20260906230746 28 296 8.0 11.3 0.00 0.00 0.00 31 1010.4
20260906230241 28 311 0.0 3.2 0.00 0.00 0.00 31 1010.6
20260906225739 28 288 1.6 1.6 0.00 0.00 0.00 31 1010.5
20260906225236 27 85 1.6 1.6 0.00 0.00 0.00 31 1010.6
20260906224731 27 315 3.2 4.8 0.00 0.00 0.00 31 1010.6
20260906224227 27 147 3.2 3.2 0.00 0.00 0.00 32 1010.7
20260906223724 28 202 3.2 6.4 0.00 0.00 0.00 31 1010.6
20260906223219 27 240 1.6 3.2 0.00 0.00 0.00 31 1011.0
20260906222717 27 350 3.2 3.2 0.00 0.00 0.00 33 1011.0
20260906222215 28 277 6.4 11.3 0.00 0.00 0.00 32 1011.0
20260906221714 28 219 4.8 6.4 0.00 0.00 0.00 30 1011.0
20260906221209 28 271 0.0 3.2 0.00 0.00 0.00 32 1011.1
20260906220704 27 312 3.2 6.4 0.00 0.00 0.00 32 1011.1
20260906220159 27 329 4.8 11.3 0.00 0.00 0.00 33 1011.2
20260906215658 27 283 4.8 6.4 0.00 0.00 0.00 33 1011.2
20260906215157 27 299 4.8 4.8 0.00 0.00 0.00 33 1011.2
20260906214655 26 127 1.6 4.8 0.00 0.00 0.00 34 1011.3
20260906214150 26 313 3.2 4.8 0.00 0.00 0.00 33 1011.4
20260906213650 26 311 3.2 3.2 0.00 0.00 0.00 35 1011.7
20260906213144 26 296 1.6 6.4 0.00 0.00 0.00 34 1011.8
20260906212641 26 119 1.6 3.2 0.00 0.00 0.00 35 1011.9
20260906212137 27 7 3.2 6.4 0.00 0.00 0.00 33 1011.7
20260906211637 26 357 1.6 6.4 0.00 0.00 0.00 34 1012.1
20260906211132 26 346 3.2 6.4 0.00 0.00 0.00 35 1012.0
20260906210628 26 77 3.2 4.8 0.00 0.00 0.00 35 1012.2
20260906210122 25 353 3.2 11.3 0.00 0.00 0.00 36 1012.5
20260906205618 25 311 1.6 6.4 0.00 0.00 0.00 37 1012.6
20260906205114 25 330 6.4 9.7 0.00 0.00 0.00 37 1012.3
20260906204613 25 329 0.0 3.2 0.00 0.00 0.00 37 1012.6
20260906204108 25 45 1.6 6.4 0.00 0.00 0.00 38 1013.0
20260906203608 25 297 4.8 6.4 0.00 0.00 0.00 39 1012.9
20260906203103 25 327 4.8 11.3 0.00 0.00 0.00 39 1012.9
20260906202600 25 320 8.0 12.9 0.00 0.00 0.00 40 1012.8
20260906202059 25 284 1.6 6.4 0.00 0.00 0.00 39 1013.0
20260906201600 25 314 4.8 9.7 0.00 0.00 0.00 38 1013.5
20260906201059 24 318 3.2 3.2 0.00 0.00 0.00 41 1013.4
20260906200555 24 350 3.2 6.4 0.00 0.00 0.00 41 1013.4
20260906200051 24 35 4.8 9.7 0.00 0.00 0.00 41 1013.3
20260906195546 25 325 4.8 6.4 0.00 0.00 0.00 40 1013.8
20260906195043 24 164 0.0 4.8 0.00 0.00 0.00 41 1013.5
20260906194538 25 287 3.2 9.7 0.00 0.00 0.00 39 1013.5
20260906194034 24 344 3.2 6.4 0.00 0.00 0.00 39 1013.6
20260906193533 23 299 3.2 9.7 0.00 0.00 0.00 41 1014.0
20260906193029 23 291 3.2 4.8 0.00 0.00 0.00 44 1013.9
20260906192524 23 188 4.8 4.8 0.00 0.00 0.00 44 1013.8
20260906192023 23 204 3.2 3.2 0.00 0.00 0.00 42 1014.2
20260906191519 23 311 1.6 3.2 0.00 0.00 0.00 42 1014.2
20260906191017 23 327 3.2 6.4 0.00 0.00 0.00 43 1014.3
20260906190517 22 308 3.2 3.2 0.00 0.00 0.00 45 1014.3
20260906190012 23 312 1.6 3.2 0.00 0.00 0.00 43 1014.5
20260906185511 23 300 1.6 4.8 0.00 0.00 0.00 42 1014.8
20260906185010 23 134 1.6 3.2 0.00 0.00 0.00 43 1014.5
20260906184505 22 196 1.6 1.6 0.00 0.00 0.00 44 1014.8
20260906184001 22 251 1.6 3.2 0.00 0.00 0.00 44 1015.0
20260906183457 21 291 0.0 4.8 0.00 0.00 0.00 47 1015.0
20260906182952 21 264 1.6 4.8 0.00 0.00 0.00 48 1015.2
20260906182447 22 150 3.2 6.4 0.00 0.00 0.00 45 1015.3
20260906181943 21 284 0.0 4.8 0.00 0.00 0.00 46 1015.2
20260906181439 21 333 3.2 6.4 0.00 0.00 0.00 47 1015.4
20260906180934 21 317 3.2 6.4 0.00 0.00 0.00 47 1015.5
20260906180429 22 305 3.2 6.4 0.00 0.00 0.00 46 1015.6
20260906175927 21 239 0.0 3.2 0.00 0.00 0.00 48 1015.8
20260906175422 21 298 4.8 6.4 0.00 0.00 0.00 49 1016.0
20260906174920 21 304 4.8 6.4 0.00 0.00 0.00 48 1016.0
20260906174420 20 347 4.8 6.4 0.00 0.00 0.00 50 1016.1
20260906173915 19 286 3.2 9.7 0.00 0.00 0.00 53 1016.2
20260906173410 20 284 3.2 9.7 0.00 0.00 0.00 51 1016.3
20260906172909 20 297 4.8 4.8 0.00 0.00 0.00 51 1016.3
20260906172406 19 274 6.4 6.4 0.00 0.00 0.00 53 1016.6
20260906171901 19 261 1.6 9.7 0.00 0.00 0.00 53 1016.7
20260906171355 19 224 1.6 6.4 0.00 0.00 0.00 54 1016.8
20260906170851 19 198 0.0 3.2 0.00 0.00 0.00 52 1016.8
20260906170347 19 151 3.2 4.8 0.00 0.00 0.00 54 1017.1
20260906165844 18 251 1.6 9.7 0.00 0.00 0.00 55 1016.9
20260906165342 18 254 1.6 4.8 0.00 0.00 0.00 57 1017.2
20260906164838 17 309 4.8 6.4 0.00 0.00 0.00 58 1017.0
20260906164337 18 272 1.6 6.4 0.00 0.00 0.00 57 1017.1
20260906163833 18 155 3.2 6.4 0.00 0.00 0.00 57 1017.2
20260906163329 18 236 3.2 4.8 0.00 0.00 0.00 57 1017.5
20260906162826 17 168 3.2 4.8 0.00 0.00 0.00 60 1017.5
20260906162325 17 286 1.6 6.4 0.00 0.00 0.00 61 1017.4
20260906161821 18 300 8.0 9.7 0.00 0.00 0.00 56 1017.7
20260906161320 17 180 3.2 3.2 0.00 0.00 0.00 58 1017.7
20260906160819 17 310 3.2 3.2 0.00 0.00 0.00 60 1017.6
20260906160313 17 161 3.2 4.8 0.00 0.00 0.00 60 1017.7
20260906155811 17 240 1.6 3.2 0.00 0.00 0.00 60 1017.7
20260906155307 16 174 3.2 3.2 0.00 0.00 0.00 61 1017.7
20260906154802 16 315 3.2 4.8 0.00 0.00 0.00 62 1017.9
20260906154256 16 273 0.0 1.6 0.00 0.00 0.00 63 1017.8
20260906153755 15 156 1.6 4.8 0.00 0.00 0.00 64 1018.0
20260906153249 15 133 1.6 3.2 0.00 0.00 0.00 65 1018.3
20260906152745 15 155 3.2 3.2 0.00 0.00 0.00 64 1017.9
20260906152245 15 249 1.6 3.2 0.00 0.00 0.00 67 1018.0
20260906151744 14 158 0.0 1.6 0.00 0.00 0.00 67 1018.0
20260906151240 14 161 3.2 4.8 0.00 0.00 0.00 68 1018.2
20260906150735 14 287 3.2 4.8 0.00 0.00 0.00 68 1018.2
20260906150231 13 178 3.2 4.8 0.00 0.00 0.00 68 1018.3
20260906145729 13 163 3.2 3.2 0.00 0.00 0.00 69 1018.5
20260906145228 13 292 0.0 4.8 0.00 0.00 0.00 69 1018.4
20260906144724 13 163 3.2 4.8 0.00 0.00 0.00 71 1018.3
20260906144219 13 210 1.6 3.2 0.00 0.00 0.00 73 1018.3
20260906143718 13 190 0.0 6.4 0.00 0.00 0.00 73 1018.3
20260906143216 13 168 3.2 4.8 0.00 0.00 0.00 74 1018.5
20260906142715 12 213 3.2 4.8 0.00 0.00 0.00 75 1018.2
20260906142211 12 222 0.0 3.2 0.00 0.00 0.00 75 1018.6
20260906141709 12 164 1.6 4.8 0.00 0.00 0.00 74 1018.2
20260906141204 13 170 0.0 1.6 0.00 0.00 0.00 72 1018.4
20260906140703 13 162 0.0 3.2 0.00 0.00 0.00 72 1018.3
20260906140158 12 156 0.0 1.6 0.00 0.00 0.00 72 1018.2
20260906135655 12 143 1.6 3.2 0.00 0.00 0.00 72 1018.5
20260906135151 12 153 0.0 1.6 0.00 0.00 0.00 74 1018.5
20260906134647 12 141 1.6 4.8 0.00 0.00 0.00 75 1018.4
20260906134141 11 164 1.6 3.2 0.00 0.00 0.00 77 1018.5
20260906133637 11 180 1.6 3.2 0.00 0.00 0.00 78 1018.5
20260906133137 11 199 3.2 3.2 0.00 0.00 0.00 80 1018.2
20260906132633 10 141 1.6 1.6 0.00 0.00 0.00 81 1018.2
20260906132128 10 139 1.6 3.2 0.00 0.00 0.00 82 1018.2
20260906131624 10 155 0.0 1.6 0.00 0.00 0.00 81 1018.0
20260906131119 10 144 3.2 4.8 0.00 0.00 0.00 82 1018.2
20260906130614 10 151 1.6 3.2 0.00 0.00 0.00 82 1017.9
20260906130109 10 140 1.6 3.2 0.00 0.00 0.00 82 1017.9
20260906125607 11 156 1.6 1.6 0.00 0.00 0.00 82 1018.0
20260906125106 10 185 3.2 4.8 0.00 0.00 0.00 82 1018.0
20260906124601 11 169 1.6 6.4 0.00 0.00 0.00 82 1018.0
20260906124056 11 141 0.0 1.6 0.00 0.00 0.00 82 1018.0
20260906123555 11 133 0.0 1.6 0.00 0.00 0.00 82 1017.8
20260906123051 11 132 0.0 1.6 0.00 0.00 0.00 82 1017.7
20260906122550 11 132 1.6 1.6 0.00 0.00 0.00 81 1017.8
20260906122046 11 131 1.6 1.6 0.00 0.00 0.00 81 1017.8
20260906121542 11 131 0.0 0.0 0.00 0.00 0.00 80 1017.7
20260906121039 11 147 0.0 1.6 0.00 0.00 0.00 80 1017.7
20260906120533 11 160 0.0 1.6 0.00 0.00 0.00 80 1017.4
20260906120031 11 236 1.6 1.6 0.00 0.00 0.00 80 1017.5
20260906115531 10 142 1.6 3.2 0.00 0.00 0.00 80 1017.4
20260906115026 10 137 1.6 1.6 0.00 0.00 0.00 80 1017.5
20260906114526 11 105 1.6 1.6 0.00 0.00 0.00 79 1017.0
20260906114022 11 117 0.0 0.0 0.00 0.00 0.00 79 1017.1
20260906113520 11 146 1.6 3.2 0.00 0.00 0.00 79 1017.1
20260906113016 11 344 0.0 0.0 0.00 0.00 0.00 79 1016.9
20260906112510 11 321 1.6 3.2 0.00 0.00 0.00 79 1016.8
20260906112007 11 289 0.0 0.0 0.00 0.00 0.00 79 1016.7
20260906111506 11 274 1.6 1.6 0.00 0.00 0.00 78 1016.3
20260906111002 11 306 6.4 9.7 0.00 0.00 0.00 79 1016.3
20260906110456 10 289 1.6 1.6 0.00 0.00 0.00 79 1016.4
20260906105955 10 308 0.0 3.2 0.00 0.00 0.00 79 1015.9
20260906105451 10 291 1.6 1.6 0.00 0.00 0.00 79 1016.0
20260906104947 10 289 0.0 1.6 0.00 0.00 0.00 79 1016.1
20260906104446 10 288 0.0 0.0 0.00 0.00 0.00 79 1015.8
20260906103945 10 288 0.0 1.6 0.00 0.00 0.00 78 1015.5
20260906103443 10 310 1.6 3.2 0.00 0.00 0.00 78 1015.4
20260906102938 10 305 0.0 1.6 0.00 0.00 0.00 78 1015.2
20260906102438 10 305 1.6 1.6 0.00 0.00 0.00 79 1015.0
20260906101933 10 291 1.6 3.2 0.00 0.00 0.00 79 1015.3
20260906101428 10 262 0.0 3.2 0.00 0.00 0.00 79 1015.1
20260906100924 10 325 0.0 1.6 0.00 0.00 0.00 79 1015.0
20260906100424 10 355 0.0 1.6 0.00 0.00 0.00 80 1014.8
20260906095918 10 356 0.0 1.6 0.00 0.00 0.00 80 1015.2
20260906095414 10 356 0.0 0.0 0.00 0.00 0.00 78 1015.0
20260906094914 10 357 0.0 0.0 0.00 0.00 0.00 78 1015.0
20260906094409 10 356 0.0 0.0 0.00 0.00 0.00 77 1014.8
20260906093905 11 357 0.0 0.0 0.00 0.00 0.00 76 1015.1
20260906093401 11 357 0.0 0.0 0.00 0.00 0.00 75 1015.0
20260906092901 11 357 0.0 1.6 0.00 0.00 0.00 75 1015.1
20260906092400 11 347 1.6 1.6 0.00 0.00 0.00 74 1014.8
20260906091856 11 294 0.0 1.6 0.00 0.00 0.00 74 1015.2
20260906091352 11 255 0.0 1.6 0.00 0.00 0.00 74 1015.2
20260906090848 11 344 0.0 0.0 0.00 0.00 0.00 75 1015.1
20260906090347 11 344 0.0 0.0 0.00 0.00 0.00 75 1015.3
20260906085842 11 335 0.0 1.6 0.00 0.00 0.00 75 1015.3
20260906085336 11 12 0.0 0.0 0.00 0.00 0.00 74 1015.6
20260906084831 11 11 0.0 1.6 0.00 0.00 0.00 74 1015.5
20260906084330 11 12 0.0 0.0 0.00 0.00 0.00 74 1015.4
20260906083825 11 12 0.0 0.0 0.00 0.00 0.00 73 1015.4
20260906083321 11 12 0.0 0.0 0.00 0.00 0.00 71 1015.5
20260906082820 12 12 0.0 0.0 0.00 0.00 0.00 71 1015.4
20260906082315 12 13 0.0 0.0 0.00 0.00 0.00 68 1015.4
20260906081811 12 13 0.0 0.0 0.00 0.00 0.00 67 1015.5
20260906081307 13 13 0.0 1.6 0.00 0.00 0.00 66 1015.5
20260906080803 13 306 3.2 3.2 0.00 0.00 0.00 65 1015.6
20260906080259 13 252 3.2 4.8 0.00 0.00 0.00 64 1015.8
20260906075758 13 269 3.2 3.2 0.00 0.00 0.00 64 1015.6
20260906075253 13 275 4.8 4.8 0.00 0.00 0.00 64 1015.4
20260906074748 13 283 3.2 4.8 0.00 0.00 0.00 65 1016.0
20260906074248 13 253 0.0 4.8 0.00 0.00 0.00 64 1016.0
20260906073747 13 237 1.6 4.8 0.00 0.00 0.00 64 1015.9
20260906073242 13 261 1.6 9.7 0.00 0.00 0.00 64 1016.0
20260906072738 13 272 3.2 3.2 0.00 0.00 0.00 64 1015.9
20260906072234 13 285 1.6 3.2 0.00 0.00 0.00 64 1016.1
20260906071729 13 273 1.6 4.8 0.00 0.00 0.00 63 1015.8
20260906071229 13 304 3.2 4.8 0.00 0.00 0.00 63 1015.9
20260906070726 14 263 3.2 3.2 0.00 0.00 0.00 62 1015.6
20260906070221 14 270 1.6 3.2 0.00 0.00 0.00 61 1015.8
20260906065721 14 274 4.8 6.4 0.00 0.00 0.00 61 1015.5
20260906065216 15 275 1.6 3.2 0.00 0.00 0.00 60 1015.9
20260906064712 15 277 6.4 9.7 0.00 0.00 0.00 59 1015.5
20260906064207 15 311 3.2 4.8 0.00 0.00 0.00 59 1016.0
20260906063702 15 284 3.2 11.3 0.00 0.00 0.00 59 1015.8
20260906063158 15 257 3.2 9.7 0.00 0.00 0.00 59 1015.8
20260906062653 15 278 1.6 6.4 0.00 0.00 0.00 59 1015.6
20260906062152 15 278 4.8 4.8 0.00 0.00 0.00 58 1015.6
20260906061648 15 270 3.2 6.4 0.00 0.00 0.00 58 1015.9
20260906061149 15 274 3.2 3.2 0.00 0.00 0.00 58 1016.0
20260906060645 15 269 3.2 6.4 0.00 0.00 0.00 57 1015.9
20260906060142 15 300 8.0 11.3 0.00 0.00 0.00 57 1015.8
20260906055637 15 295 3.2 6.4 0.00 0.00 0.00 56 1015.6
20260906055132 16 282 3.2 9.7 0.00 0.00 0.00 54 1016.1
20260906054627 16 300 4.8 9.7 0.00 0.00 0.00 53 1015.9
20260906054123 16 316 4.8 12.9 0.00 0.00 0.00 51 1015.6
20260906053619 16 320 6.4 9.7 0.00 0.00 0.00 50 1015.8
20260906053114 16 295 1.6 4.8 0.00 0.00 0.00 50 1015.8
20260906052610 16 310 4.8 6.4 0.00 0.00 0.00 51 1015.6
20260906052107 16 311 3.2 6.4 0.00 0.00 0.00 53 1015.8
20260906051602 15 322 4.8 6.4 0.00 0.00 0.00 54 1015.6
20260906051057 15 320 1.6 1.6 0.00 0.00 0.00 55 1015.8
20260906050552 16 320 0.0 3.2 0.00 0.00 0.00 55 1015.8
20260906050047 16 57 1.6 1.6 0.00 0.00 0.00 56 1015.6
20260906045545 16 57 0.0 1.6 0.00 0.00 0.00 55 1015.8
20260906045041 16 50 0.0 1.6 0.00 0.00 0.00 54 1015.6
20260906044537 16 342 1.6 1.6 0.00 0.00 0.00 55 1015.4
20260906044032 16 318 1.6 1.6 0.00 0.00 0.00 55 1015.9
20260906043528 16 330 0.0 1.6 0.00 0.00 0.00 56 1015.5
20260906043024 16 271 0.0 0.0 0.00 0.00 0.00 54 1015.5
20260906042522 16 271 0.0 0.0 0.00 0.00 0.00 56 1015.4
20260906042017 16 271 0.0 1.6 0.00 0.00 0.00 56 1015.5
20260906041514 16 305 0.0 0.0 0.00 0.00 0.00 57 1015.4
20260906041013 16 305 0.0 0.0 0.00 0.00 0.00 56 1015.5
20260906040508 16 305 0.0 1.6 0.00 0.00 0.00 56 1015.4
20260906040004 17 258 0.0 1.6 0.00 0.00 0.00 55 1015.6
20260906035459 17 256 1.6 1.6 0.00 0.00 0.00 54 1015.4
20260906034954 17 220 0.0 0.0 0.00 0.00 0.00 52 1015.4
20260906034454 17 221 0.0 1.6 0.00 0.00 0.00 52 1015.6
20260906033950 17 220 0.0 0.0 0.00 0.00 0.00 52 1015.2
20260906033444 18 221 1.6 1.6 0.00 0.00 0.00 51 1015.5
20260906032940 18 221 1.6 3.2 0.00 0.00 0.00 50 1015.4
20260906032437 18 350 0.0 0.0 0.00 0.00 0.00 51 1015.5
20260906031936 18 49 1.6 1.6 0.00 0.00 0.00 50 1015.3
20260906031432 19 319 1.6 4.8 0.00 0.00 0.00 48 1015.2
20260906030927 19 287 1.6 3.2 0.00 0.00 0.00 45 1015.3
20260906030422 19 233 0.0 0.0 0.00 0.00 0.00 44 1015.1
20260906025916 18 158 0.0 0.0 0.00 0.00 0.00 45 1014.7
20260906025411 19 158 0.0 1.6 0.00 0.00 0.00 50 1014.8
20260906024909 19 154 0.0 1.6 0.00 0.00 0.00 50 1014.5
20260906024409 19 141 0.0 1.6 0.00 0.00 0.00 51 1014.6
20260906023904 18 196 1.6 4.8 0.00 0.00 0.00 53 1014.6
20260906023401 18 132 0.0 1.6 0.00 0.00 0.00 54 1014.7
20260906022900 18 240 0.0 1.6 0.00 0.00 0.00 54 1014.6
20260906022355 19 240 0.0 0.0 0.00 0.00 0.00 53 1014.7
20260906021851 19 240 0.0 0.0 0.00 0.00 0.00 52 1014.6
20260906021350 19 241 1.6 1.6 0.00 0.00 0.00 53 1014.7
20260906020845 20 241 0.0 0.0 0.00 0.00 0.00 52 1014.6
20260906020345 20 241 0.0 0.0 0.00 0.00 0.00 50 1014.6
20260906015839 20 241 0.0 0.0 0.00 0.00 0.00 50 1014.6
20260906015339 21 241 0.0 0.0 0.00 0.00 0.00 48 1014.5
20260906014839 21 241 0.0 0.0 0.00 0.00 0.00 47 1014.5
20260906014333 22 241 0.0 0.0 0.00 0.00 0.00 45 1014.4
20260906013830 23 241 0.0 0.0 0.00 0.00 0.00 43 1014.8
20260906013325 23 241 0.0 1.6 0.00 0.00 0.00 40 1014.6
20260906012821 25 258 0.0 1.6 0.00 0.00 0.00 39 1014.5
20260906012321 25 236 0.0 1.6 0.00 0.00 0.00 37 1014.5
20260906011815 25 205 0.0 0.0 0.00 0.00 0.00 37 1015.0
20260906011315 25 205 0.0 0.0 0.00 0.00 0.00 37 1014.7
20260906010812 26 304 0.0 3.2 0.00 0.00 0.00 36 1014.7
20260906010308 25 268 0.0 0.0 0.00 0.00 0.00 35 1014.7
20260906005802 25 268 1.6 1.6 0.00 0.00 0.00 35 1014.4
20260906005301 25 266 0.0 3.2 0.00 0.00 0.00 36 1014.6
20260906004800 25 302 4.8 6.4 0.00 0.00 0.00 34 1014.6
20260906004255 25 270 3.2 4.8 0.00 0.00 0.00 34 1014.5
20260906003756 25 304 1.6 4.8 0.00 0.00 0.00 37 1014.5
20260906003251 24 303 1.6 3.2 0.00 0.00 0.00 38 1014.5
20260906002747 23 276 1.6 3.2 0.00 0.00 0.00 38 1014.5
20260906002246 23 297 1.6 3.2 0.00 0.00 0.00 40 1014.6
20260906001742 24 305 1.6 4.8 0.00 0.00 0.00 38 1014.6
20260906001237 24 296 4.8 4.8 0.00 0.00 0.00 38 1014.6
20260906000732 25 300 0.0 3.2 0.00 0.00 0.00 36 1014.8
20260906000234 26 294 1.6 3.2 0.00 0.00 0.00 34 1014.5
20260905235727 25 302 0.0 1.6 0.00 0.00 0.00 33 1014.7
20260905235227 25 320 3.2 3.2 0.00 0.00 0.00 33 1014.6
20260905234723 26 324 1.6 3.2 0.00 0.00 0.00 33 1014.8
20260905234218 25 299 0.0 1.6 0.00 0.00 0.00 34 1014.6
20260905233713 25 324 1.6 3.2 0.00 0.00 0.00 34 1014.5
20260905233212 25 294 0.0 1.6 0.00 0.00 0.00 32 1014.5
20260905232707 26 70 0.0 1.6 0.00 0.00 0.00 32 1014.8
20260905232203 26 1 0.0 4.8 0.00 0.00 0.00 32 1014.7
20260905231658 26 0 1.6 1.6 0.00 0.00 0.00 31 1014.7